[[{"header":{"parameterUnit":"m.s-1","parameterCategory":1,"la1":30.2991,"la2":30.254,"lo1":-89.0895,"lo2":-89.0444,"dy":0.0017,"dx":0.0017,"nx":28,"ny":28,"refTime":"2024-05-24T21:00:00:Z","depth":0,"parameterNumber":2,"parameterNumberName":"U-component_of_WINDS"},"data":[0,0,0,0,0,0,0,0,0,0,0,0,0,0,0,0,0,0,0,0,0,0,0,0,0,0,0,0,0,0,0,0,0,0,0,0,0,0,0,0,0,0,0,0,0,0,0,0,0,0,0,0,0,0,0,0,0,0,-0.1206,-0.1205,0,-0.1121,-0.112,-0.1119,-0.1095,-0.1096,-0.1096,-0.1096,-0.1007,-0.1004,-0.1001,0,0,0,0,0,0,0,0,0,0,0,0,0,-0.1346,-0.1344,-0.1206,-0.1205,-0.1204,-0.1121,-0.112,-0.1119,-0.1095,-0.1096,-0.1096,-0.1097,-0.1008,-0.1004,-0.1001,0,0,0,0,0,0,0,0,0,0,0,0,0,-0.1276,-0.1343,-0.1206,-0.1182,-0.1179,-0.1121,-0.112,-0.1118,-0.1095,-0.1096,-0.1096,-0.1097,-0.1009,-0.1005,-0.1001,-0.096,0,0,-0.0988,-0.0986,0,0,0,0,0,0,0,0,-0.128,-0.127,-0.1187,-0.1184,-0.118,-0.1119,-0.1136,-0.1065,-0.1095,-0.1127,-0.1096,-0.1097,-0.1044,-0.1037,-0.1019,-0.0956,-0.0952,-0.0987,-0.0985,-0.0983,-0.0982,0,0,0,0,0,0,0,-0.1284,-0.1274,-0.1172,-0.1186,-0.1182,-0.1175,-0.1166,-0.1123,-0.1082,-0.1124,-0.1122,-0.1112,-0.1042,-0.1023,-0.1017,-0.0951,-0.0987,-0.0984,-0.0981,-0.0979,-0.0849,-0.0849,0,0,0,0,0,0,-0.1294,-0.1278,-0.1175,-0.117,-0.1233,-0.1172,-0.1162,-0.1138,-0.1082,-0.1075,-0.1112,-0.1112,-0.103,-0.1022,-0.1013,-0.0962,-0.0983,-0.0979,-0.0976,-0.085,-0.0849,-0.0848,0,0,0,0,0,0,-0.1297,-0.1285,-0.1178,-0.1223,-0.1209,-0.1169,-0.1143,-0.1136,-0.1117,-0.1073,-0.1066,-0.11,-0.103,-0.1019,-0.0973,-0.0958,-0.0977,-0.0973,-0.0851,-0.085,-0.0849,-0.0858,0,0,0,0,0,0,-0.1301,-0.1286,-0.1271,-0.1223,-0.1207,-0.1141,-0.1142,-0.1134,-0.111,-0.1109,-0.106,-0.1053,-0.103,-0.098,-0.0969,-0.0953,-0.097,-0.0853,-0.0851,-0.0849,-0.0859,-0.0858,-0.0856,0,0,0,0,0,-0.1306,-0.1276,-0.127,-0.1258,-0.1187,-0.114,-0.113,-0.1105,-0.1109,-0.1093,-0.1065,-0.1055,-0.0962,-0.0976,-0.0963,-0.0945,-0.0853,-0.0851,-0.0849,-0.086,-0.0858,-0.0856,0,0,0,0,0,0,-0.1322,-0.127,-0.1262,-0.1216,-0.1183,-0.1136,-0.1114,-0.1104,-0.1068,-0.1068,-0.1038,-0.1027,-0.0983,-0.096,-0.0976,-0.0903,-0.0907,-0.0903,-0.092,-0.0917,-0.0916,-0.0922,-0.0966,0,0,0,0,0,-0.132,-0.1287,-0.1243,-0.1206,-0.119,-0.1155,-0.1134,-0.1117,-0.1081,-0.1067,-0.1035,-0.1,-0.0963,-0.0939,-0.0902,-0.0856,-0.0845,-0.0838,-0.0836,-0.0835,-0.0831,-0.0805,-0.0801,-0.0842,-0.0842,-0.0842,0,0,-0.1316,-0.1283,-0.1264,-0.1209,-0.1181,-0.1146,-0.1143,-0.1107,-0.1081,-0.1061,-0.1016,-0.0992,-0.095,-0.0904,-0.0882,-0.0883,-0.0818,-0.0833,-0.0832,-0.0829,-0.0802,-0.0799,-0.0795,-0.084,-0.0841,-0.0841,0,0,-0.1291,-0.1263,-0.1229,-0.1202,-0.116,-0.1137,-0.1129,-0.1084,-0.1068,-0.1022,-0.1006,-0.0975,-0.0911,-0.0883,-0.086,-0.0824,-0.0813,-0.0813,-0.0805,-0.0779,-0.0776,-0.0773,-0.076,-0.0756,-0.081,-0.081,-0.081,0,-0.129,-0.1239,-0.1213,-0.1178,-0.1154,-0.1135,-0.1101,-0.1075,-0.1023,-0.1007,-0.1009,-0.093,-0.09,-0.0847,-0.0839,-0.0821,-0.081,-0.0818,-0.0779,-0.0775,-0.0772,-0.0759,-0.0755,-0.081,-0.081,-0.081,-0.081,0,-0.124,-0.1204,-0.1182,-0.1134,-0.1107,-0.1072,-0.1042,-0.1018,-0.1004,-0.0981,-0.0934,-0.0899,-0.0855,-0.0841,-0.0827,-0.0786,-0.0788,-0.0785,-0.0789,-0.0769,-0.0756,-0.0751,-0.081,-0.081,-0.081,-0.081,0,0,-0.1221,-0.116,-0.1152,-0.113,-0.1083,-0.1054,-0.1018,-0.0976,-0.0956,-0.0921,-0.089,-0.0838,-0.0835,-0.0809,-0.0791,-0.0769,-0.0743,-0.0769,-0.0767,-0.0765,-0.0695,-0.0697,-0.0692,-0.0736,-0.0735,-0.0734,-0.0698,0,-0.119,-0.1126,-0.1102,-0.105,-0.1016,-0.0998,-0.0967,-0.0934,-0.0912,-0.088,-0.0855,-0.0818,-0.0817,-0.0801,-0.0779,-0.0751,-0.0728,-0.0753,-0.0706,-0.0704,-0.0716,-0.0685,-0.0687,-0.0655,-0.0693,-0.0692,-0.0692,0,-0.1144,-0.1109,-0.1053,-0.101,-0.0995,-0.0968,-0.0927,-0.0897,-0.086,-0.0845,-0.0817,-0.0801,-0.0762,-0.0769,-0.0716,-0.0733,-0.0712,-0.0696,-0.0694,-0.0688,-0.0696,-0.0678,-0.0644,-0.064,-0.0684,-0.0685,-0.0685,0,-0.1135,-0.1075,-0.1033,-0.1015,-0.0964,-0.0945,-0.0923,-0.0886,-0.0862,-0.0827,-0.0811,-0.0771,-0.0749,-0.0719,-0.0692,-0.07,-0.0641,-0.0646,-0.0627,-0.0628,-0.0615,-0.0616,-0.0577,-0.0603,-0.0603,-0.0603,-0.0603,0,-0.1102,-0.1068,-0.1029,-0.1003,-0.0965,-0.0938,-0.0901,-0.0878,-0.0845,-0.0815,-0.0797,-0.0768,-0.0736,-0.0703,-0.0682,-0.064,-0.0631,-0.0617,-0.0612,-0.0618,-0.062,-0.0604,-0.0605,-0.0602,-0.0602,-0.0602,-0.0602,0,-0.1085,-0.1058,-0.1011,-0.0967,-0.0955,-0.0929,-0.0891,-0.0865,-0.0843,-0.0804,-0.0793,-0.0757,-0.0718,-0.0689,-0.0637,-0.0623,-0.0579,-0.0574,-0.0592,-0.0589,-0.0572,-0.0573,-0.052,-0.0512,-0.0544,-0.0544,-0.0544,0,-0.1066,-0.1039,-0.0993,-0.0971,-0.0949,-0.0914,-0.089,-0.0863,-0.0839,-0.0794,-0.0774,-0.0733,-0.0699,-0.0637,-0.0606,-0.0567,-0.056,-0.0544,-0.0554,-0.0561,-0.0559,-0.0561,-0.0558,-0.0543,-0.0542,-0.0542,-0.0542,0,-0.1033,-0.1021,-0.0987,-0.0948,-0.092,-0.0888,-0.0855,-0.0839,-0.0806,-0.0779,-0.0739,-0.0713,-0.0661,-0.062,-0.0578,-0.0555,-0.0543,-0.054,-0.0533,-0.0539,-0.055,-0.0543,-0.0587,-0.0541,-0.0541,-0.0541,-0.0541,-0.0541,-0.1014,-0.099,-0.0953,-0.0916,-0.0889,-0.0859,-0.0833,-0.0807,-0.0773,-0.0729,-0.0715,-0.0673,-0.0637,-0.0579,-0.0555,-0.0522,-0.0522,-0.0513,-0.051,-0.0508,-0.0508,-0.0556,-0.0514,-0.0514,-0.0514,-0.0514,-0.0514,0,-0.098,-0.0956,-0.0922,-0.0877,-0.0848,-0.084,-0.0804,-0.078,-0.0743,-0.0711,-0.0678,-0.0632,-0.0593,-0.0559,-0.0518,-0.0498,-0.0492,-0.0489,-0.0489,-0.0484,-0.0511,-0.052,-0.0494,-0.0494,-0.0495,-0.0495,-0.0495,-0.0495,-0.0959,-0.0917,-0.0901,-0.0846,-0.0821,-0.0781,-0.0761,-0.0733,-0.0707,-0.0656,-0.0624,-0.0602,-0.0569,-0.0526,-0.049,-0.0481,-0.0467,-0.0465,-0.0455,-0.048,-0.0482,-0.0484,-0.0493,-0.0462,-0.0462,-0.0431,-0.043,-0.043]},{"header":{"parameterUnit":"m.s-1","parameterCategory":1,"la1":30.2991,"la2":30.254,"lo1":-89.0895,"lo2":-89.0444,"dy":0.0017,"dx":0.0017,"nx":28,"ny":28,"refTime":"2024-05-24T21:00:00:Z","depth":0,"parameterNumber":3,"parameterNumberName":"V-component_of_WINDS"},"data":[0,0,0,0,0,0,0,0,0,0,0,0,0,0,0,0,0,0,0,0,0,0,0,0,0,0,0,0,0,0,0,0,0,0,0,0,0,0,0,0,0,0,0,0,0,0,0,0,0,0,0,0,0,0,0,0,0,0,5.6162,5.6162,0,5.6133,5.6133,5.6132,5.6112,5.6112,5.6112,5.6112,5.6078,5.6077,5.6077,0,0,0,0,0,0,0,0,0,0,0,0,0,5.6196,5.6196,5.6162,5.6162,5.6161,5.6133,5.6133,5.6132,5.6112,5.6112,5.6112,5.6112,5.6078,5.6077,5.6076,0,0,0,0,0,0,0,0,0,0,0,0,0,5.6176,5.6196,5.6162,5.6148,5.6146,5.6133,5.6133,5.6132,5.6112,5.6112,5.6112,5.6112,5.6079,5.6077,5.6076,5.6073,0,0,5.6073,5.6072,0,0,0,0,0,0,0,0,5.6177,5.6175,5.615,5.6149,5.6147,5.6126,5.6132,5.6112,5.6112,5.6125,5.6112,5.6112,5.6094,5.6091,5.6086,5.6072,5.607,5.6073,5.6072,5.6072,5.6071,0,0,0,0,0,0,0,5.6178,5.6176,5.615,5.615,5.6148,5.6142,5.6139,5.6128,5.6111,5.6124,5.6123,5.612,5.6093,5.6088,5.6085,5.607,5.6073,5.6072,5.6071,5.6071,5.6051,5.6052,0,0,0,0,0,0,5.6183,5.6177,5.6151,5.6149,5.6162,5.6142,5.6138,5.6133,5.6111,5.6108,5.612,5.6119,5.609,5.6087,5.6084,5.6079,5.6072,5.607,5.607,5.6051,5.6051,5.6052,0,0,0,0,0,0,5.6183,5.6181,5.6152,5.6163,5.6159,5.6141,5.6136,5.6133,5.6127,5.6108,5.6104,5.6118,5.6089,5.6086,5.6077,5.6078,5.607,5.6069,5.6051,5.6051,5.6051,5.607,0,0,0,0,0,0,5.6185,5.6181,5.618,5.6163,5.6158,5.6146,5.6136,5.6132,5.6126,5.6124,5.6105,5.6102,5.6089,5.6078,5.6075,5.6076,5.6068,5.6051,5.6051,5.6051,5.6069,5.607,5.6072,0,0,0,0,0,5.6186,5.6186,5.618,5.6177,5.6158,5.6146,5.6144,5.613,5.6126,5.6125,5.6112,5.6102,5.6078,5.6078,5.6074,5.6074,5.6051,5.6051,5.6051,5.6068,5.607,5.6072,0,0,0,0,0,0,5.6202,5.6183,5.6177,5.6172,5.6161,5.6143,5.6141,5.6133,5.6122,5.6121,5.6104,5.6099,5.6092,5.6082,5.6082,5.607,5.6063,5.6063,5.6077,5.6079,5.608,5.6083,5.6067,0,0,0,0,0,5.6205,5.6199,5.6182,5.6179,5.6174,5.6159,5.6153,5.6144,5.6132,5.6127,5.6114,5.6101,5.6091,5.6084,5.6074,5.6067,5.6063,5.6066,5.6068,5.6069,5.6069,5.6064,5.6066,5.6053,5.6053,5.6053,0,0,5.6211,5.62,5.6197,5.6182,5.6173,5.6166,5.6155,5.6148,5.6142,5.6125,5.6116,5.6106,5.6091,5.6083,5.6079,5.6075,5.6071,5.6069,5.6071,5.607,5.6065,5.6066,5.6067,5.6053,5.6053,5.6053,0,0,5.6219,5.621,5.6206,5.6198,5.6184,5.6174,5.6173,5.6157,5.615,5.6141,5.6129,5.6121,5.6104,5.6093,5.6086,5.6091,5.608,5.6087,5.6095,5.6091,5.6092,5.6093,5.6094,5.6095,5.6087,5.6087,5.6087,0,5.6227,5.6218,5.6205,5.6199,5.6193,5.6179,5.6175,5.6166,5.615,5.6145,5.6141,5.612,5.6108,5.6098,5.6099,5.6094,5.6092,5.6089,5.6093,5.6094,5.6095,5.6096,5.6096,5.6088,5.6088,5.6088,5.6088,0,5.6229,5.6222,5.6221,5.6207,5.62,5.6195,5.6181,5.6176,5.6167,5.6157,5.6148,5.6134,5.6121,5.6118,5.6109,5.6106,5.6104,5.6097,5.6089,5.6097,5.6098,5.6098,5.609,5.6089,5.6089,5.6089,0,0,5.6245,5.6225,5.6225,5.6218,5.6203,5.6197,5.6191,5.6179,5.6175,5.6164,5.6158,5.6144,5.6138,5.6129,5.6119,5.6116,5.612,5.6109,5.6108,5.6111,5.6116,5.6121,5.6122,5.6114,5.6114,5.6114,5.6117,0,5.625,5.624,5.6229,5.6222,5.6215,5.6203,5.6197,5.6187,5.6177,5.617,5.6159,5.6149,5.6142,5.6137,5.6133,5.6121,5.6121,5.612,5.6107,5.6107,5.6111,5.6122,5.6128,5.6131,5.6117,5.6118,5.6118,0,5.6254,5.6245,5.6238,5.6224,5.6221,5.6216,5.6205,5.6198,5.6186,5.6179,5.617,5.616,5.6152,5.6146,5.6134,5.6134,5.6128,5.6121,5.6121,5.6119,5.6112,5.612,5.6132,5.6133,5.6118,5.6118,5.6118,0,5.6266,5.6252,5.6247,5.6242,5.6225,5.6222,5.6215,5.6202,5.6196,5.6186,5.6181,5.617,5.6163,5.6154,5.614,5.6137,5.613,5.6123,5.6123,5.6124,5.6122,5.6122,5.6133,5.6119,5.6119,5.6119,5.6119,0,5.6272,5.6268,5.6252,5.6248,5.6244,5.6231,5.6226,5.6217,5.6206,5.62,5.6188,5.6182,5.6165,5.6156,5.6146,5.6138,5.6135,5.6128,5.6125,5.6129,5.613,5.6124,5.6124,5.6119,5.6119,5.6119,5.6119,0,5.6285,5.6274,5.6267,5.6252,5.6248,5.6245,5.6232,5.6227,5.6218,5.621,5.6207,5.6192,5.6182,5.6168,5.6152,5.6145,5.6138,5.6134,5.6143,5.6141,5.6143,5.6142,5.615,5.615,5.6136,5.6137,5.6137,0,5.6289,5.6286,5.6272,5.6267,5.6261,5.6254,5.6248,5.6235,5.6229,5.6215,5.6212,5.6201,5.6192,5.6176,5.6163,5.6151,5.6146,5.6149,5.6144,5.6148,5.6145,5.6146,5.6145,5.615,5.6151,5.6151,5.6151,0,5.6299,5.6294,5.6286,5.6277,5.6271,5.6262,5.6254,5.625,5.6235,5.6229,5.6219,5.6212,5.6198,5.6187,5.6174,5.6165,5.6155,5.6153,5.6152,5.6156,5.6161,5.6158,5.6146,5.6153,5.6152,5.6152,5.6152,5.6152,5.6307,5.6304,5.6293,5.6286,5.6278,5.627,5.6265,5.6256,5.6248,5.6236,5.6228,5.6219,5.6206,5.6188,5.618,5.6171,5.6167,5.6166,5.6166,5.6166,5.6167,5.6163,5.6169,5.6169,5.6168,5.6168,5.6168,0,5.6315,5.6308,5.6301,5.629,5.6284,5.6277,5.6267,5.6262,5.6254,5.6244,5.6235,5.6224,5.6214,5.62,5.6188,5.6184,5.6179,5.6181,5.6181,5.6179,5.6172,5.6173,5.6185,5.6185,5.6185,5.6185,5.6185,5.6185,5.6319,5.6314,5.6307,5.6297,5.629,5.6282,5.6277,5.6269,5.6261,5.6249,5.6241,5.6233,5.6221,5.6208,5.6198,5.6194,5.619,5.6194,5.6188,5.6181,5.618,5.6178,5.618,5.6193,5.6193,5.6196,5.6197,5.6197]}]]